Terminal Aerodrome Forecast
Issued by NWS Atlanta, GA

Home | Current Version | Previous Version | Text Only | Print | Product List | Glossary On
Versions: 1 2 3 4 5 6 7 8 9 10 11 12 13 14 15 16 17 18 19 20 21 22 23 24 25 26 27 28
000
FTAK31 PAJN 181100
TAFAHN
TAF
PAHN 181130Z 1812/1912 30010KT P6SM SCT008 SCT100
     FM181400 30012G17KT P6SM SCT010 BKN150
     FM182200 30012KT P6SM SCT070 OVC100 PROB30 1906/1912 -SN SCT050
      OVC070
      AMD LTD TO CLD VIS AND WIND=

USA.gov is the U.S. government's official web portal to all federal, state and local government web resources and services.